NOAA 15 1 25338U 98030A 21021.79190968 .00000023 00000-0 28086-4 0 9999 2 25338 98.6984 51.5097 0010171 353.5948 6.5100 14.26009475180099 METEOSAT 8 (MSG 1) 1 27509U 02040B 21021.20616567 .00000142 00000-0 00000-0 0 9995 2 27509 7.1093 53.1679 0000422 308.3537 235.0184 1.00265609 67479 KALPANA 1 (METSAT 1) 1 27525U 02043A 21021.06711139 .00000011 00000-0 00000-0 0 9996 2 27525 9.8061 46.3071 0005446 46.0636 116.4078 0.98336652 67082 NOAA 18 1 28654U 05018A 21021.82587038 .00000072 00000-0 63640-4 0 9998 2 28654 99.0157 85.9753 0013753 339.3024 20.7589 14.12574801807748 METEOSAT 9 (MSG 2) 1 28912U 05049B 21021.77281347 .00000024 00000-0 00000-0 0 9991 2 28912 4.8924 69.1872 0001241 253.9295 79.7110 1.00274383 55257 HIMAWARI 7 1 28937U 06004A 21021.80229927 -.00000273 00000-0 00000-0 0 9997 2 28937 0.7302 93.9391 0002534 132.4511 334.9163 0.99079645 54689 FORMOSAT 3A 1 29047U 06011A 21021.71178177 .00000167 00000-0 81623-4 0 9993 2 29047 71.9787 24.5009 0048632 43.3848 317.1100 14.28778257772488 FORMOSAT 3B 1 29048U 06011B 21021.87534288 .00000071 00000-0 44439-4 0 9998 2 29048 71.9672 294.8206 0043531 0.8345 359.2855 14.28748815774995 FORMOSAT 3C 1 29049U 06011C 21021.51451094 .00000057 00000-0 38826-4 0 9990 2 29049 72.0209 108.4491 0034067 25.7594 334.5229 14.28825361770737 FORMOSAT 3D 1 29050U 06011D 21021.86654367 .00000113 00000-0 34161-4 0 9999 2 29050 72.0141 231.4876 0051618 287.0652 72.4850 14.59006897788182 FORMOSAT 3E 1 29051U 06011E 21021.64911126 .00000034 00000-0 29425-4 0 9994 2 29051 72.0058 9.8043 0070660 267.5841 91.7204 14.28862109773323 FORMOSAT 3F 1 29052U 06011F 21021.42303898 .00000053 00000-0 36864-4 0 9998 2 29052 72.0346 85.1255 0040771 344.8589 15.1323 14.28967204770831 GOES 13 1 29155U 06018A 21021.42552674 .00000046 00000-0 00000-0 0 9998 2 29155 0.3743 103.9919 0006499 133.2575 98.4238 1.00274663 53727 METOP-A 1 29499U 06044A 21021.87328836 -.00000009 00000-0 15157-4 0 9991 2 29499 98.4942 66.8374 0001181 68.9889 103.8219 14.21495932739737 FENGYUN 2D 1 29640U 06053A 21021.57688179 .00000002 00000-0 00000-0 0 9994 2 29640 7.2237 52.4077 0012860 347.0115 10.2219 0.98191782 51621 FENGYUN 3A 1 32958U 08026A 21021.85535945 -.00000009 00000-0 15459-4 0 9991 2 32958 98.4320 2.5458 0009784 66.7705 293.4501 14.18645244655681 FENGYUN 2E 1 33463U 08066A 21021.71776750 -.00000200 00000-0 00000-0 0 9998 2 33463 4.7978 67.8113 0003869 318.2678 80.6714 1.00272241 44310 NOAA 19 1 33591U 09005A 21021.77555869 .00000010 00000-0 31018-4 0 9991 2 33591 99.1929 38.7745 0013962 180.2241 179.8926 14.12449337615951 GOES 14 1 35491U 09033A 21021.55769604 -.00000083 00000-0 00000-0 0 9997 2 35491 0.0867 234.0071 0012230 353.5813 350.0645 1.00271944 42342 METEOR-M 1 35865U 09049A 21021.81745788 .00000003 00000-0 20030-4 0 9995 2 35865 98.4625 5.8234 0001216 284.1389 75.9655 14.22262272588817 GOES 15 1 36411U 10008A 21021.68516189 .00000063 00000-0 00000-0 0 9993 2 36411 0.4040 98.8055 0002170 314.0578 187.1375 1.00279899 39894 COMS 1 1 36744U 10032A 21021.79767574 -.00000334 00000-0 00000-0 0 9999 2 36744 0.0295 129.1922 0000961 171.5255 235.9447 1.00269667 31319 FENGYUN 3B 1 37214U 10059A 21021.84917712 .00000010 00000-0 28282-4 0 9994 2 37214 99.0696 13.2025 0017246 12.0649 48.8637 14.15972955528541 NPP 1 37849U 11061A 21021.83336534 .00000023 00000-0 31437-4 0 9998 2 37849 98.7245 322.5685 0001220 60.5447 357.3911 14.19548495478615 FENGYUN 2F 1 38049U 12002A 21021.90527645 -.00000349 00000-0 00000-0 0 9990 2 38049 2.5696 82.8438 0004257 28.8043 87.6352 1.00281597 33112 METEOSAT 10 (MSG 3) 1 38552U 12035B 21021.77403477 .00000072 00000-0 00000-0 0 9998 2 38552 1.2352 356.7592 0000585 7.6803 44.8341 1.00268157 31083 METOP-B 1 38771U 12049A 21021.88994213 -.00000029 00000-0 65294-5 0 9995 2 38771 98.7015 84.0444 0002526 92.4170 259.0917 14.21495328433057 FENGYUN 3C 1 39260U 13052A 21021.78136599 .00000005 00000-0 23932-4 0 9993 2 39260 98.5215 69.0564 0010232 312.7351 47.2959 14.15856938379513 METEOR M2 1 40069U 14037A 21021.80275067 -.00000037 00000-0 21692-5 0 9991 2 40069 98.4781 56.7967 0005957 19.9788 340.1610 14.20680034339217 HIMAWARI 8 1 40267U 14060A 21021.80020559 -.00000265 00000-0 00000-0 0 9999 2 40267 0.0521 195.1002 0001248 101.1993 253.7827 1.00272275 22987 FENGYUN 2G 1 40367U 14090A 21021.83035539 -.00000285 00000-0 00000-0 0 9992 2 40367 0.6728 93.0591 0003871 287.7503 138.4748 1.00256634 22267 METEOSAT 11 (MSG 4) 1 40732U 15034A 21021.77229005 .00000010 00000-0 00000-0 0 9998 2 40732 0.3241 259.4733 0001236 356.2090 144.1867 1.00262028 20260 ELEKTRO-L 2 1 41105U 15074A 21021.41034766 -.00000106 00000-0 00000-0 0 9993 2 41105 1.7238 94.3955 0001784 150.9049 8.9401 1.00271634 18732 HIMAWARI 9 1 41836U 16064A 21021.58490698 -.00000265 00000-0 00000-0 0 9998 2 41836 0.0495 259.5309 0001524 88.8308 124.0690 1.00270221 15410 GOES 16 1 41866U 16071A 21021.51021601 -.00000238 00000-0 00000-0 0 9996 2 41866 0.0402 228.9810 0001362 93.1127 267.4443 1.00272856 15331 FENGYUN 4A 1 41882U 16077A 21021.96090965 -.00000319 00000-0 00000-0 0 9998 2 41882 0.0500 74.3025 0004713 354.5167 143.2173 1.00276537 15207 CYGFM05 1 41884U 16078A 21021.71555396 .00000562 00000-0 31193-4 0 9998 2 41884 34.9560 143.9951 0015725 197.8031 162.2130 15.14839854227199 CYGFM04 1 41885U 16078B 21021.67735630 .00000498 00000-0 27457-4 0 9991 2 41885 34.9493 136.2392 0014249 209.6971 150.2932 15.15362748227218 CYGFM02 1 41886U 16078C 21021.73646639 .00000492 00000-0 27156-4 0 9999 2 41886 34.9585 137.7598 0014950 205.7065 154.2904 15.15361685227295 CYGFM01 1 41887U 16078D 21021.71149249 .00000476 00000-0 26798-4 0 9996 2 41887 34.9527 145.4977 0016189 198.1421 161.8714 15.14650863227141 CYGFM08 1 41888U 16078E 21021.70898338 .00000516 00000-0 28597-4 0 9990 2 41888 34.9498 140.3762 0015464 206.3773 153.6152 15.15065682227248 CYGFM06 1 41889U 16078F 21021.71605613 .00000499 00000-0 27505-4 0 9992 2 41889 34.9579 136.5779 0013891 205.5977 154.4047 15.15351991227246 CYGFM07 1 41890U 16078G 21021.69465121 .00000509 00000-0 28035-4 0 9990 2 41890 34.9518 135.7046 0013704 209.0305 150.9645 15.15351570227233 CYGFM03 1 41891U 16078H 21021.69105056 .00000512 00000-0 28197-4 0 9992 2 41891 34.9549 136.0407 0013172 207.6429 152.3583 15.15338174227235